Daggett-Barstow, CA

10:35 AM PDT on October 19, 2017 (GMT -0700)
Barstow-Daggett

Weather History for KDAG - May, 2009

Change the Weather History Date:

Thursday, May 14, 2009

  Actual Average Record
Temperature  
Mean Temperature 80 °F 74 °F  
Max Temperature 95 °F 88 °F 103 °F (1976)
Min Temperature 66 °F 59 °F 44 °F (1951)
Degree Days  
Heating Degree Days 0    
Cooling Degree Days 14    
Growing Degree Days 30 (Base 50)    
Moisture  
Dew Point 31 °F    
Average Humidity 19    
Maximum Humidity 29    
Minimum Humidity 9    
Precipitation  
Precipitation 0.00 in 0.00 in 0.24 in (1951)
Month to date precipitation 0.02  
Year to date precipitation 1.95  
Sea Level Pressure  
Sea Level Pressure 29.80 in    
Wind  
Wind Speed 16 mph (West)    
Max Wind Speed 22 mph    
Max Gust Speed 30 mph    
Visibility 10 miles    
Events      
T = Trace of Precipitation, MM = Missing Value Source: NWS Daily Summary

Daily Weather History Graph

Daily Weather History Graph

Search for Another Location

Airport or City:

Trip Planner

Search our weather history database for the weather conditions in past years. The results will help you decide how hot, cold, wet, or windy it might be!

Date:

Astronomy

May. 14, 2009 Rise Set
Actual Time 5:44 AM PDT 7:43 PM PDT
Civil Twilight 5:16 AM PDT 8:11 PM PDT
Nautical Twilight 4:42 AM PDT 8:45 PM PDT
Astronomical Twilight 4:06 AM PDT 9:21 PM PDT
Moon No Moon Rise 10:02 AM PDT (5/14)
Length of Visible Light 14h 54m
Length of Day
13h 58m
Waning Gibbous, 73% of the Moon is Illuminated
May 14
Waning Gibbous
May 17
Last Quarter
May 24
New
May 30
First Quarter
Jun 7
Full

Hourly Weather History & Observations

Time (PDT) Temp. Dew Point Humidity Pressure Visibility Wind Dir Wind Speed Gust Speed Precip Events Conditions
12:51 AM 71.1 °F 32.0 °F 24% 29.83 in 10.0 mi WSW 21.9 mph 29.9 mph N/A   Clear
1:51 AM 71.1 °F 32.0 °F 24% 29.82 in 10.0 mi WSW 20.7 mph - N/A   Clear
2:51 AM 70.0 °F 32.0 °F 25% 29.81 in 10.0 mi WSW 18.4 mph - N/A   Clear
3:51 AM 70.0 °F 30.9 °F 24% 29.81 in 10.0 mi WSW 17.3 mph - N/A   Clear
4:51 AM 69.1 °F 30.9 °F 24% 29.81 in 10.0 mi SW 19.6 mph - N/A   Clear
5:51 AM 66.9 °F 32.0 °F 27% 29.84 in 10.0 mi WNW 13.8 mph 18.4 mph N/A   Clear
6:51 AM 66.0 °F 33.1 °F 29% 29.86 in 10.0 mi West 11.5 mph - N/A   Clear
7:51 AM 70.0 °F 35.1 °F 28% 29.86 in 10.0 mi WNW 12.7 mph - N/A   Clear
8:51 AM 75.0 °F 35.1 °F 23% 29.87 in 10.0 mi WNW 13.8 mph - N/A   Clear
9:51 AM 78.1 °F 33.1 °F 19% 29.86 in 10.0 mi WNW 15.0 mph - N/A   Clear
10:51 AM 82.0 °F 33.1 °F 17% 29.85 in 10.0 mi WNW 10.4 mph 18.4 mph N/A   Clear
11:51 AM 84.9 °F 32.0 °F 15% 29.83 in 10.0 mi NW 10.4 mph - N/A   Clear
12:51 PM 88.0 °F 28.9 °F 12% 29.81 in 10.0 mi NW 9.2 mph - N/A   Clear
1:51 PM 90.0 °F 28.9 °F 11% 29.78 in 10.0 mi WNW 8.1 mph 20.7 mph N/A   Clear
2:51 PM 91.9 °F 28.0 °F 10% 29.75 in 10.0 mi WNW 12.7 mph 19.6 mph N/A   Clear
3:51 PM 93.9 °F 26.1 °F 9% 29.73 in 10.0 mi West 12.7 mph 21.9 mph N/A   Clear
4:51 PM 93.9 °F 26.1 °F 9% 29.71 in 10.0 mi WNW 12.7 mph - N/A   Clear
5:51 PM 93.0 °F 26.1 °F 9% 29.70 in 10.0 mi West 12.7 mph 20.7 mph N/A   Clear
6:51 PM 91.0 °F 27.0 °F 10% 29.70 in 10.0 mi WNW 10.4 mph - N/A   Clear
7:51 PM 86.0 °F 32.0 °F 14% 29.73 in 10.0 mi West 19.6 mph 27.6 mph N/A   Clear
8:51 PM 81.0 °F 34.0 °F 18% 29.76 in 10.0 mi West 19.6 mph - N/A   Clear
9:51 PM 79.0 °F 35.1 °F 20% 29.78 in 10.0 mi WSW 20.7 mph - N/A   Clear
10:51 PM 77.0 °F 36.0 °F 23% 29.79 in 10.0 mi WSW 13.8 mph - N/A   Clear
11:51 PM 75.0 °F 35.1 °F 23% 29.80 in 10.0 mi WSW 15.0 mph 20.7 mph N/A   Clear